Weather History for Deming, NM

Change the Weather History Date:

Tuesday, November 12, 2013

  Actual Average Record
Temperature  
Mean Temperature 55 °F 51 °F  
Max Temperature 66 °F 67 °F 85 °F (1973)
Min Temperature 43 °F 35 °F 18 °F (1950)
Degree Days  
Heating Degree Days 10    
Growing Degree Days 4 (Base 50)    
Moisture  
Dew Point 32 °F    
Average Humidity 50    
Maximum Humidity 76    
Minimum Humidity 24    
Precipitation  
Precipitation 0.00 in 0.02 in 0.12 in (2004)
Month to date precipitation 0.02 0.23  
Year to date precipitation 9.38 10.18  
Sea Level Pressure  
Sea Level Pressure 30.31 in    
Wind  
Wind Speed 14 mph (East)    
Max Wind Speed 28 mph    
Max Gust Speed 36 mph    
Visibility 10 miles    
Events      
T = Trace of Precipitation, MM = Missing Value Source: NWS Daily Summary

Daily Weather History Graph

Daily Weather History Graph

Search for Another Location

Airport:

Trip Planner

Search our weather history database for the weather conditions in past years. The results will help you decide how hot, cold, wet, or windy it might be!

Date:

Astronomy

Nov. 12, 2013 Rise Set
Actual Time 6:37 AM MST 5:12 PM MST
Civil Twilight 6:11 AM MST 5:37 PM MST
Nautical Twilight 5:42 AM MST 6:07 PM MST
Astronomical Twilight 5:13 AM MST 6:36 PM MST
Moon 2:13 PM MST (11/12) 1:47 AM MST (11/12)
Length of Visible Light 11h 26m
Length of Day
10h 34m
Waxing Gibbous, 77% of the Moon is Illuminated
Nov 12
Waxing Gibbous
Nov 17
Full
Nov 25
Last Quarter
Dec 2
New
Dec 9
First Quarter

Hourly Weather History & Observations

Time (MST) Temp. Windchill Dew Point Humidity Pressure Visibility Wind Dir Wind Speed Gust Speed Precip Events Conditions
12:53 AM 46.0 °F 44.8 °F 25.0 °F 44% 30.15 in 10.0 mi SSE 3.5 mph - N/A   Clear
1:53 AM 46.0 °F 41.9 °F 21.9 °F 39% 30.15 in 10.0 mi East 8.1 mph - N/A   Clear
2:53 AM 51.1 °F - 21.9 °F 32% 30.15 in 10.0 mi ENE 8.1 mph - N/A   Clear
3:53 AM 53.1 °F - 21.9 °F 30% 30.16 in 10.0 mi ENE 10.4 mph - N/A   Clear
4:53 AM 55.9 °F - 19.9 °F 25% 30.17 in 10.0 mi ENE 11.5 mph - N/A   Mostly Cloudy
5:53 AM 52.0 °F - 23.0 °F 32% 30.25 in 10.0 mi ENE 13.8 mph 25.3 mph N/A   Clear
6:53 AM 52.0 °F - 28.9 °F 41% 30.29 in 10.0 mi ENE 17.3 mph - N/A   Clear
7:53 AM 53.1 °F - 28.0 °F 38% 30.35 in 10.0 mi East 15.0 mph 21.9 mph N/A   Clear
8:53 AM 55.9 °F - 30.9 °F 39% 30.38 in 10.0 mi East 12.7 mph 21.9 mph N/A   Clear
9:53 AM 60.1 °F - 35.1 °F 39% 30.38 in 10.0 mi East 18.4 mph 26.5 mph N/A   Clear
10:53 AM 63.0 °F - 37.0 °F 38% 30.36 in 10.0 mi East 18.4 mph 28.8 mph N/A   Clear
11:53 AM 64.0 °F - 37.9 °F 38% 30.33 in 10.0 mi East 25.3 mph 32.2 mph N/A   Clear
12:53 PM 66.0 °F - 37.0 °F 34% 30.32 in 10.0 mi East 24.2 mph 29.9 mph N/A   Clear
1:53 PM 66.0 °F - 37.0 °F 34% 30.32 in 10.0 mi ESE 19.6 mph 29.9 mph N/A   Clear
2:53 PM 64.0 °F - 36.0 °F 35% 30.30 in 10.0 mi ESE 20.7 mph 27.6 mph N/A   Clear
3:53 PM 62.1 °F - 36.0 °F 38% 30.30 in 10.0 mi ESE 18.4 mph - N/A   Clear
4:53 PM 59.0 °F - 36.0 °F 42% 30.32 in 10.0 mi ESE 16.1 mph 23.0 mph N/A   Clear
5:53 PM 55.9 °F - 37.0 °F 49% 30.36 in 10.0 mi ESE 13.8 mph - N/A   Clear
6:53 PM 54.0 °F - 37.0 °F 53% 30.38 in 10.0 mi ESE 12.7 mph - N/A   Clear
7:53 PM 50.0 °F - 37.0 °F 61% 30.40 in 10.0 mi East 11.5 mph - N/A   Clear
8:53 PM 46.9 °F - 37.0 °F 68% 30.41 in 10.0 mi East 15.0 mph - N/A   Clear
9:53 PM 44.1 °F 40.8 °F 35.1 °F 71% 30.43 in 10.0 mi NNE 5.8 mph - N/A   Clear
10:53 PM 43.0 °F 37.2 °F 35.1 °F 74% 30.43 in 10.0 mi ENE 10.4 mph - N/A   Clear
11:53 PM 43.0 °F 36.4 °F 36.0 °F 76% 30.41 in 10.0 mi ENE 12.7 mph - N/A   Clear